When you browse on this site, cookies collect data to enhance your experience and personalize the content and advertising you see.
Visit our Privacy Policy to learn more. By continuing to use the site, you agree to this use of cookies and data.
  • en Suisse
  • Liste des pays
  • À 7 jours
  • Température de l'eau
  • Carte satellitaire
  • Carte météo
  • Widgets météo
  • user-avatar
    Se connecter

    Météo par heure à Cairns

    Ce jour, 23 Mars, Samedi

    Heure Température Précipitation Vent Pression Humidité
    00:00 +26°C° 0.2 mm 4 m/s 757 mmHg 98%
    01:00 +26°C° 0.2 mm 4 m/s 757 mmHg 98%
    02:00 +26°C° 0.3 mm 4 m/s 757 mmHg 97%
    03:00 +26°C° 0.3 mm 4 m/s 757 mmHg 97%
    04:00 +26°C° 0 mm 4 m/s 756 mmHg 97%
    05:00 +26°C° 0.2 mm 4 m/s 757 mmHg 97%
    06:00 +26°C° 0.2 mm 3 m/s 757 mmHg 97%
    07:00 +26°C° 0.2 mm 3 m/s 757 mmHg 97%
    08:00 +27°C° 0.4 mm 3 m/s 758 mmHg 93%
    09:00 +28°C° 0.4 mm 3 m/s 758 mmHg 90%
    10:00 +30°C° 0 mm 3 m/s 758 mmHg 84%
    11:00 +31°C° 1 mm 3 m/s 758 mmHg 83%
    12:00 +31°C° 1 mm 3 m/s 758 mmHg 82%
    13:00 +31°C° 1 mm 2 m/s 757 mmHg 81%
    14:00 +31°C° 0.4 mm 2 m/s 757 mmHg 81%
    15:00 +31°C° 0.4 mm 2 m/s 757 mmHg 81%
    16:00 +31°C° 0 mm 2 m/s 757 mmHg 81%
    17:00 +30°C° 0.2 mm 2 m/s 757 mmHg 86%
    18:00 +28°C° 0.2 mm 2 m/s 757 mmHg 91%
    19:00 +27°C° 0.2 mm 2 m/s 758 mmHg 96%
    20:00 +27°C° 0.1 mm 2 m/s 758 mmHg 97%
    21:00 +27°C° 0.1 mm 2 m/s 758 mmHg 97%
    22:00 +27°C° 0 mm 2 m/s 759 mmHg 97%
    23:00 +26°C° 0 mm 2 m/s 758 mmHg 97%

    Demain, 24 Mars, Dimanche

    Heure Température Précipitation Vent Pression Humidité
    00:00 +26°C° 0 mm 2 m/s 758 mmHg 97%
    01:00 +26°C° 0 mm 2 m/s 758 mmHg 97%
    02:00 +26°C° 0 mm 2 m/s 758 mmHg 97%
    03:00 +26°C° 0 mm 2 m/s 757 mmHg 97%
    04:00 +26°C° 0 mm 2 m/s 757 mmHg 97%
    05:00 +26°C° 0 mm 2 m/s 758 mmHg 97%
    06:00 +26°C° 0 mm 2 m/s 758 mmHg 97%
    07:00 +27°C° 0 mm 2 m/s 758 mmHg 97%
    08:00 +28°C° 0.1 mm 2 m/s 758 mmHg 91%
    09:00 +29°C° 0.1 mm 2 m/s 758 mmHg 85%
    10:00 +31°C° 0.1 mm 3 m/s 759 mmHg 79%
    11:00 +31°C° 0.2 mm 3 m/s 758 mmHg 77%
    12:00 +33°C° 0.2 mm 3 m/s 758 mmHg 74%
    13:00 +34°C° 0.2 mm 3 m/s 757 mmHg 72%
    14:00 +33°C° 0.5 mm 3 m/s 757 mmHg 76%
    15:00 +31°C° 0.5 mm 3 m/s 757 mmHg 80%
    16:00 +31°C° 0.5 mm 3 m/s 757 mmHg 83%
    17:00 +30°C° 0.3 mm 2 m/s 757 mmHg 88%
    18:00 +29°C° 0.3 mm 2 m/s 757 mmHg 92%
    19:00 +27°C° 0.3 mm 1 m/s 757 mmHg 96%
    20:00 +27°C° 0.1 mm 1 m/s 758 mmHg 97%
    21:00 +27°C° 0.1 mm 1 m/s 758 mmHg 97%
    22:00 +27°C° 0.1 mm 1 m/s 759 mmHg 98%
    23:00 +27°C° 0.1 mm 1 m/s 759 mmHg 98%

    Après-demain, 25 Mars, Lundi

    Heure Température Précipitation Vent Pression Humidité
    00:00 +27°C° 0.1 mm 1 m/s 758 mmHg 98%
    01:00 +26°C° 0.1 mm 1 m/s 758 mmHg 98%
    02:00 +26°C° 0.1 mm 1 m/s 758 mmHg 98%
    03:00 +26°C° 0.1 mm 1 m/s 757 mmHg 98%
    04:00 +26°C° 0.1 mm 2 m/s 757 mmHg 99%
    05:00 +26°C° 0.1 mm 2 m/s 757 mmHg 98%
    06:00 +26°C° 0.1 mm 2 m/s 758 mmHg 98%
    07:00 +26°C° 0.1 mm 2 m/s 758 mmHg 98%
    08:00 +28°C° 0 mm 2 m/s 759 mmHg 89%
    09:00 +30°C° 0 mm 2 m/s 759 mmHg 80%
    10:00 +32°C° 0 mm 2 m/s 759 mmHg 72%
    11:00 +32°C° 0.2 mm 2 m/s 759 mmHg 71%
    12:00 +34°C° 0.2 mm 3 m/s 758 mmHg 71%
    13:00 +34°C° 0.2 mm 3 m/s 758 mmHg 70%
    14:00 +34°C° 0.2 mm 3 m/s 757 mmHg 72%
    15:00 +33°C° 0.2 mm 3 m/s 757 mmHg 73%
    16:00 +33°C° 0.2 mm 3 m/s 756 mmHg 75%
    17:00 +30°C° 0 mm 2 m/s 757 mmHg 81%
    18:00 +29°C° 0 mm 2 m/s 757 mmHg 87%
    19:00 +28°C° 0 mm 1 m/s 758 mmHg 93%
    20:00 +27°C° 0 mm 1 m/s 758 mmHg 94%
    21:00 +27°C° 0 mm 1 m/s 759 mmHg 95%
    22:00 +27°C° 0 mm 1 m/s 759 mmHg 96%
    23:00 +27°C° 0 mm 1 m/s 759 mmHg 96%

    26 Mars, Mardi

    Heure Température Précipitation Vent Pression Humidité
    00:00 +27°C° 0 mm 1 m/s 759 mmHg 97%
    01:00 +27°C° 0 mm 1 m/s 759 mmHg 97%
    02:00 +26°C° 0 mm 1 m/s 758 mmHg 97%
    03:00 +26°C° 0 mm 1 m/s 758 mmHg 97%
    04:00 +26°C° 0 mm 1 m/s 758 mmHg 97%
    05:00 +26°C° 0 mm 1 m/s 758 mmHg 97%
    06:00 +26°C° 0 mm 1 m/s 758 mmHg 96%
    07:00 +27°C° 0 mm 1 m/s 759 mmHg 96%
    08:00 +29°C° 0 mm 1 m/s 759 mmHg 87%
    09:00 +31°C° 0 mm 2 m/s 759 mmHg 78%
    10:00 +32°C° 0 mm 2 m/s 759 mmHg 69%
    11:00 +34°C° 0.1 mm 2 m/s 759 mmHg 67%
    12:00 +35°C° 0.1 mm 2 m/s 758 mmHg 65%
    13:00 +35°C° 0.1 mm 3 m/s 758 mmHg 63%
    14:00 +35°C° 0 mm 3 m/s 757 mmHg 65%
    15:00 +34°C° 0 mm 3 m/s 756 mmHg 68%
    16:00 +33°C° 0 mm 3 m/s 756 mmHg 71%
    17:00 +31°C° 0.1 mm 2 m/s 756 mmHg 79%
    18:00 +29°C° 0.1 mm 2 m/s 757 mmHg 87%
    19:00 +28°C° 0.1 mm 1 m/s 757 mmHg 95%
    20:00 +28°C° 0.1 mm 1 m/s 758 mmHg 96%
    21:00 +28°C° 0.1 mm 1 m/s 759 mmHg 96%
    22:00 +27°C° 0.1 mm 1 m/s 759 mmHg 97%
    23:00 +27°C° 0.1 mm 1 m/s 759 mmHg 97%

    27 Mars, Mercredi

    Heure Température Précipitation Vent Pression Humidité
    00:00 +25°C° 0.1 mm 0 m/s 759 mmHg 98%
    01:00 +25°C° 0.1 mm 0 m/s 758 mmHg 98%
    02:00 +25°C° 0.1 mm 0 m/s 758 mmHg 98%
    03:00 +25°C° 0.1 mm 0 m/s 757 mmHg 98%
    04:00 +26°C° 0.1 mm 1 m/s 757 mmHg 98%
    05:00 +27°C° 0 mm 1 m/s 757 mmHg 98%
    06:00 +27°C° 0 mm 1 m/s 758 mmHg 98%
    07:00 +27°C° 0 mm 1 m/s 758 mmHg 98%
    08:00 +29°C° 0 mm 1 m/s 759 mmHg 89%
    09:00 +30°C° 0 mm 1 m/s 759 mmHg 80%
    10:00 +32°C° 0 mm 1 m/s 759 mmHg 72%
    11:00 +34°C° 0 mm 2 m/s 758 mmHg 69%
    12:00 +34°C° 0 mm 2 m/s 757 mmHg 66%
    13:00 +35°C° 0 mm 2 m/s 757 mmHg 63%
    14:00 +35°C° 0 mm 2 m/s 756 mmHg 65%
    15:00 +34°C° 0 mm 2 m/s 756 mmHg 66%
    16:00 +34°C° 0 mm 3 m/s 755 mmHg 67%
    17:00 +31°C° 0 mm 2 m/s 756 mmHg 76%
    18:00 +29°C° 0 mm 1 m/s 756 mmHg 85%
    19:00 +27°C° 0 mm 1 m/s 757 mmHg 93%
    20:00 +27°C° 0 mm 1 m/s 757 mmHg 95%
    21:00 +25°C° 0 mm 0 m/s 758 mmHg 96%
    22:00 +25°C° 0 mm 0 m/s 758 mmHg 97%
    23:00 +25°C° 0.1 mm 0 m/s 758 mmHg 97%

    28 Mars, Jeudi

    Heure Température Précipitation Vent Pression Humidité
    00:00 +25°C° 0.1 mm 0 m/s 757 mmHg 97%
    01:00 +25°C° 0.1 mm 0 m/s 757 mmHg 97%
    02:00 +25°C° 0.1 mm 0 m/s 756 mmHg 97%
    03:00 +24°C° 0.1 mm 0 m/s 756 mmHg 97%
    04:00 +24°C° 0.1 mm 0 m/s 756 mmHg 98%
    05:00 +24°C° 0 mm 0 m/s 756 mmHg 97%
    06:00 +24°C° 0 mm 0 m/s 757 mmHg 97%
    07:00 +27°C° 0 mm 1 m/s 757 mmHg 96%
    08:00 +29°C° 0 mm 1 m/s 757 mmHg 87%
    09:00 +31°C° 0 mm 1 m/s 758 mmHg 77%
    10:00 +32°C° 0 mm 1 m/s 758 mmHg 67%
    11:00 +33°C° 0 mm 1 m/s 757 mmHg 65%
    12:00 +34°C° 0 mm 2 m/s 756 mmHg 63%
    13:00 +35°C° 0 mm 2 m/s 755 mmHg 61%
    14:00 +34°C° 0 mm 2 m/s 755 mmHg 64%
    15:00 +34°C° 0 mm 3 m/s 755 mmHg 67%
    16:00 +33°C° 0 mm 3 m/s 754 mmHg 71%
    17:00 +31°C° 0 mm 2 m/s 755 mmHg 78%
    18:00 +29°C° 0 mm 2 m/s 755 mmHg 86%
    19:00 +28°C° 0 mm 1 m/s 756 mmHg 94%
    20:00 +27°C° 0 mm 1 m/s 756 mmHg 95%
    21:00 +27°C° 0 mm 1 m/s 756 mmHg 96%
    22:00 +25°C° 0 mm 0 m/s 757 mmHg 97%
    23:00 +25°C° 0 mm 0 m/s 756 mmHg 97%
    Voir plus